Simultaneous Nadir Overpasses (SNOs) Predictions

Prediction of SNOs between NOAA-19 and NPP Satellite Orbit:

Table of predicted SNOs for the next 14.0 days since TLE Epoch: 2/7/2016
Index Date (NOAA-19) Time (NOAA-19) Lat,Lon (NOAA-19) SZA (NOAA-19 ) Date (NPP) Time (NPP) Lat,Lon (NPP) SZA (NPP ) Distance(km) Time Diff (sec)
1 02/07/2016 08:56:49 81.02, -7.49 100.37 02/07/2016 08:57:58 81.01, -7.34 100.31 2.80 69
2 02/07/2016 09:47:46 -81.02, 159.96 79.67 02/07/2016 09:48:43 -81.02, 159.80 79.68 2.85 57
3 02/07/2016 10:38:51 81.02, -32.90 100.34 02/07/2016 10:39:28 81.02, -32.78 100.30 2.22 37
4 02/07/2016 11:29:48 -81.02, 134.54 79.70 02/07/2016 11:30:13 -81.02, 134.36 79.69 3.25 25
5 02/07/2016 12:20:53 81.02, -58.31 100.30 02/07/2016 12:20:58 81.02, -58.22 100.28 1.65 5
6 02/07/2016 13:11:51 -81.02, 108.75 79.69 02/07/2016 13:11:43 -81.03, 108.92 79.71 2.95 8
7 02/07/2016 14:02:55 81.02, -83.72 100.27 02/07/2016 14:02:28 81.02, -83.66 100.27 1.10 27
8 02/07/2016 14:53:52 -81.02, 83.71 79.77 02/07/2016 14:53:12 -81.01, 83.84 79.77 2.53 40
9 02/07/2016 15:44:57 81.02,-109.14 100.23 02/07/2016 15:43:58 81.03,-109.10 100.26 0.62 59
10 02/07/2016 16:35:54 -81.02, 58.29 79.81 02/07/2016 16:34:42 -81.02, 58.40 79.78 2.04 72
11 02/20/2016 16:39:45 81.02,-123.23 95.92 02/20/2016 16:40:47 81.02,-123.11 95.86 2.21 62
12 02/20/2016 17:30:41 -81.02, 44.05 84.10 02/20/2016 17:31:32 -81.02, 44.19 84.15 2.44 51
13 02/20/2016 18:21:47 81.02,-148.65
